Regional Weather Roundup
Issued by NWS

Home | Current Version | Previous Version | Text Only | Print | Product List | Glossary Off
Versions: 1 2 3 4 5 6 7 8 9 10 11 12 13 14 15 16 17 18 19 20 21 22 23 24 25 26 27 28 29 30 31 32 33 34 35 36 37 38 39 40 41 42 43 44 45 46 47 48 49 50

726
ASUS43 KMPX 290901
RWRMN
WEATHER ROUNDUP FOR MINNESOTA
NATIONAL WEATHER SERVICE TWIN CITIES/CHANHASSEN MN
400 AM CDT MON MAY 29 2017


NOTE: "FAIR" INDICATES FEW OR NO CLOUDS BELOW 12,000 FEET WITH NO
SIGNIFICANT WEATHER AND/OR OBSTRUCTIONS TO VISIBILITY. N/A MEANS
CURRENT SKY AND/OR WEATHER CONDITIONS ARE NOT AVAILABLE.

MNZ060>063-068>070-291000-
   Twin Cities Metro

CITY           SKY/WX    TMP DP  RH WIND       PRES   REMARKS
TWIN CITIES    PTCLDY    55  46  71 W14       29.73S
ST PAUL        MOCLDY    55  49  80 W17       29.73R
CRYSTAL        PTCLDY    54  45  71 NW13G20   29.72R
BLAINE         CLOUDY    55  50  82 W13G18    29.72S
LAKEVILLE      CLEAR     52  46  82 W9        29.75R
EDEN PRAIRIE   PTCLDY    55  46  71 W10       29.74R
SOUTH ST PAUL  MOCLDY    55  47  74 W10G17    29.73R
LAKE ELMO      CLOUDY    54  50  87 W12       29.73R
$$
MNZ001>005-007-008-013>017-022>024-027-028-291000-
   Northwest Minnesota

CITY           SKY/WX    TMP DP  RH WIND       PRES   REMARKS
BEMIDJI        CLOUDY    47  46  97 NW12      29.72S
HALLOCK        CLOUDY    48  46  93 NW15      29.79S
ROSEAU         CLOUDY    48  43  81 NW8       29.74R HAZE
WARROAD        CLOUDY    48  45  87 NW12G18   29.73R
THIEF RVR FALL LGT RAIN  48  46  93 NW15      29.77R FOG
CROOKSTON      CLOUDY    50  48  93 NW15      29.79S
FOSSTON        DRIZZLE   46  46 100 NW13G18   29.76S
DETROIT LAKES  CLOUDY    48  46  93 NW12G20   29.78S FOG
MOORHEAD       CLOUDY    50  48  93 NW13      29.82R FOG
PARK RAPIDS    CLOUDY    50  45  83 W10       29.73S
MAHNOMEN       CLOUDY    49  47  95 NW13G18   29.76S
$$
MNZ006-009>011-018-025>026-291000-
   North Central Minnesota

CITY           SKY/WX    TMP DP  RH WIND       PRES   REMARKS
BAUDETTE       LGT RAIN  49  48  97 NW12      29.69S
FLAG ISLAND    CLOUDY    48  46  93 NW21      29.69S
INTL FALLS     LGT RAIN  50  48  93 NW7       29.64S
WASKISH        CLOUDY    48  46  93 NW12G17   29.70S
BIG FORK       CLOUDY    50  46  87 NW5       29.67S
LONGVILLE      CLOUDY    50  46  87 W7        29.70S
GRAND RAPIDS   CLOUDY    50  47  89 NW13      29.69R
CRANE LAKE     DRIZZLE   52  50  93 CALM      29.62S
ORR            CLOUDY    52  46  82 NW9G16    29.61S
COOK           CLOUDY    52  48  87 W7        29.63S
WALKER         HVY RAIN  47  46  96 NW12      29.71S
$$
MNZ012-019>021-037-291000-
   Northeast Minnesota

CITY           SKY/WX    TMP DP  RH WIND       PRES   REMARKS
DULUTH         CLOUDY    52  49  89 NW12      29.62F
ELY            DRIZZLE   50  50 100 W5        29.59S
HIBBING        CLOUDY    50  48  93 NW13G21   29.63S
EVELETH        CLOUDY    53  47  82 NW8       29.63S
DULUTH HARBOR  CLOUDY    55  52  88 W15       29.63S
TWO HARBORS    MOCLDY    54  48  82 W5        29.59S
SILVER BAY     CLOUDY    54  52  94 W3        29.57S
GRAND MARAIS     N/A     42  42 100 CALM      29.56S
G MARAIS ARPRT CLOUDY    50  45  81 CALM      29.56S
$$
MNZ029>031-032-039>041-046>048-054>057-064-291000-
   West Central Minnesota

CITY           SKY/WX    TMP DP  RH WIND       PRES   REMARKS
FERGUS FALLS   MIX PCPN  50  50 100 NW14      29.79S
WHEATON        CLOUDY    54  46  76 W13G18    29.83F
MORRIS         CLOUDY    54  48  82 NW16      29.80S
ALEXANDRIA     CLOUDY    50  48  93 NW13      29.78F
ELBOW LAKE     LGT RAIN  51  48  92 NW17G25   29.81S
WADENA         CLOUDY    50  45  81 NW16G23   29.75S
GLENWOOD       MOCLDY    52  46  82 W22       29.78F
APPLETON       PTCLDY    54  45  71 W13       29.81S
BENSON         MOCLDY    54  46  76 NW12      29.82R
ORTONVILLE     MOCLDY    55  46  71 NW13G18   29.83S
MADISON        MOCLDY    55  46  71 W10       29.84R
WILLMAR        FAIR      52  46  82 W13       29.80S
$$
MNZ033>034-036-042>043-049>051-058-059-291000-
   Central Minnesota

CITY           SKY/WX    TMP DP  RH WIND       PRES   REMARKS
ST CLOUD       CLOUDY    52  49  89 W9        29.74R
SAUK CENTRE    CLOUDY    51  46  86 W15       29.77S
PAYNESVILLE    CLOUDY    52  46  79 W10G21    29.77S
AITKIN         RAIN      48  46  93 W5        29.69R
PINE RIVER     CLOUDY    50  48  93 W6        29.76R
BRAINERD       CLOUDY    51  47  86 NW14      29.72S
STAPLES        CLOUDY    48  45  87 W15       29.74S
LONG PRAIRIE   CLOUDY    50  45  81 W12       29.76S
LITTLE FALLS   CLOUDY    50  45  81 W8        29.74S
LITCHFIELD     CLOUDY    55  48  76 NW13G22   29.77S
BUFFALO        CLOUDY    54  47  76 W8        29.76R
MAPLE LAKE     CLOUDY    54  49  83 W7        29.75S
HUTCHINSON     CLOUDY    54  48  81 W14       29.78F
$$
MNZ037-044-045-052-053-291000-
   East Central Minnesota

CITY           SKY/WX    TMP DP  RH WIND       PRES   REMARKS
PRINCETON      CLOUDY    54  50  87 W8        29.73S
MORA           CLOUDY    50  46  87 W7        29.72R
CAMBRIDGE      CLOUDY    54  46  76 W7        29.70R
RUSH CITY      CLOUDY    52  49  89 W6        29.70S
MOOSE LAKE     CLOUDY    52  46  82 W7        29.65S
HINCKLEY       CLOUDY    52  50  93 W6        29.68S
CLOQUET        CLOUDY    52  48  87 W7        29.65R
MCGREGOR       CLOUDY    52  48  87 W8        29.68S
$$
MNZ071>073-080-081-089-090-097-098-291000-
   Southwest Minnesota

CITY           SKY/WX    TMP DP  RH WIND       PRES   REMARKS
MONTEVIDEO     MOCLDY    52  45  76 NW8       29.82S
CANBY          MOCLDY    52  46  79 W8        29.86S
MARSHALL       CLEAR     52  44  74 W16       29.85R
REDWOOD FALLS  CLEAR     51  43  74 W12       29.81R
OLIVIA         CLEAR     50  43  76 W13       29.80R
PIPESTONE      CLEAR     52  41  66 NW7       29.88S
WINDOM         CLEAR     50  45  81 W10       29.85S
WORTHINGTON    CLEAR     49  45  86 W10       29.88R
JACKSON        CLEAR     52  43  71 W7        29.86S
TRACY          CLEAR     52  46  78 W6        29.85S
SLAYTON        CLEAR     49  45  84 W9        29.88R
$$
MNZ065>067-074>077-082>085-091>093-291000-
   South Central Minnesota

CITY           SKY/WX    TMP DP  RH WIND       PRES   REMARKS
MANKATO        CLEAR     53  45  74 W13       29.80R
NEW ULM        CLEAR     52  43  71 W13       29.81S
ST JAMES       CLEAR     54  43  66 W14       29.83S
FAIRMONT       CLEAR     54  44  69 W15       29.83S
GLENCOE        MOCLDY    54  49  83 W12G17    29.77S
FARIBAULT      PTCLDY    54  46  76 W9        29.78R
OWATONNA       PTCLDY    54  45  71 W14       29.78R
WASECA         CLEAR     52  43  71 W12       29.80S
ALBERT LEA     CLEAR     55  46  71 W9        29.79F
$$
MNZ078>079-086>088-094>096-291000-
   Southeast Minnesota

CITY           SKY/WX    TMP DP  RH WIND       PRES   REMARKS
ROCHESTER      CLEAR     52  44  74 W20       29.76R
RED WING       MOCLDY    55  46  71 NW12      29.71S
STANTON        PTCLDY    54  47  78 W13       29.74R
DODGE CENTER   CLEAR     54  45  71 W17       29.77R
WINONA         CLEAR     55  45  67 SW8       29.72S
AUSTIN         CLEAR     54  45  71 W14G23    29.78S
PRESTON        CLEAR     52  43  72 W15       29.76S
$$
ABBREVIATIONS USED IN REMARKS
   TC - TEMPERATURES IN CELSIUS
  WCI - WIND CHILL INDEX
   HX - HEAT INDEX
  VSB - VISIBILITY
$$




USA.gov is the U.S. government's official web portal to all federal, state and local government web resources and services.